QPF
0.01 0.01 0.03 0.02 0.02 0.02 0.01 0.01 0.01 0.01 0.01 0.01 0.01 0.01 0.01 0.01 0.01 0.02 0.02 0.03 0.03 0.02 0.02 0.02 0.03 0.03 0.02 0.03 0.03 0.04 0.03 0.03 0.03 0.03 0.03 0.04 0.04 0.05 0.07 0.07 0.04 0.03 0.06
0.00 0.01 0.02 0.02 0.02 0.02 0.01 0.01 0.01 0.01 0.01 0.00 0.00 0.00 0.00 0.01 0.01 0.01 0.02 0.02 0.02 0.02 0.02 0.02 0.02 0.02 0.03 0.03 0.03 0.03 0.03 0.03 0.03 0.04 0.04 0.03 0.04 0.04 0.06 0.07 0.03 0.04 0.07
0.00 0.00 0.01 0.02 0.01 0.01 0.01 0.01 0.01 0.01 0.00 0.00 0.00 0.00 0.00 0.01 0.01 0.01 0.01 0.01 0.01 0.01 0.01 0.02 0.02 0.02 0.03 0.03 0.03 0.03 0.03 0.02 0.02 0.03 0.03 0.02 0.03 0.05 0.05 0.06 0.06 0.05 0.05
0.00 0.00 0.01 0.01 0.01 0.01 0.00 0.00 0.00 0.00 0.00 0.00 0.00 0.00 0.01 0.01 0.01 0.01 0.01 0.02 0.01 0.01 0.01 0.01 0.01 0.01 0.02 0.02 0.02 0.02 0.02 0.02 0.01 0.02 0.01 0.01 0.01 0.04 0.05 0.05 0.06 0.06 0.04
0.00 0.00 0.01 0.01 0.01 0.00 0.00 0.00 0.00 0.00 0.00 0.00 0.00 0.00 0.01 0.01 0.01 0.01 0.02 0.02 0.01 0.01 0.00 0.01 0.01 0.01 0.01 0.01 0.01 0.02 0.03 0.03 0.02 0.01 0.00 0.01 0.01 0.04 0.05 0.05 0.05 0.05 0.03
0.00 0.00 0.01 0.01 0.01 0.00 0.00 0.00 0.00 0.00 0.00 0.01 0.00 0.00 0.01 0.01 0.01 0.01 0.01 0.01 0.01 0.01 0.01 0.01 0.01 0.01 0.01 0.02 0.03 0.03 0.03 0.03 0.02 0.00 0.00 0.01 0.01 0.03 0.04 0.04 0.03 0.03 0.03
0.00 0.01 0.01 0.01 0.00 0.00 0.00 0.00 0.00 0.01 0.01 0.01 0.00 0.01 0.01 0.01 0.01 0.00 0.00 0.01 0.01 0.00 0.01 0.01 0.01 0.01 0.01 0.02 0.03 0.06 0.05 0.02 0.01 0.00 0.00 0.01 0.01 0.03 0.03 0.03 0.02 0.02 0.02
0.01 0.01 0.01 0.01 0.01 0.00 0.00 0.00 0.00 0.01 0.01 0.01 0.00 0.01 0.01 0.01 0.01 0.00 0.00 0.00 0.00 0.00 0.00 0.01 0.01 0.01 0.02 0.02 0.04 0.04 0.03 0.02 0.00 0.00 0.00 0.01 0.01 0.02 0.02 0.02 0.02 0.02 0.02
0.01 0.01 0.01 0.01 0.00 0.01 0.01 0.00 0.01 0.01 0.01 0.00 0.00 0.01 0.01 0.01 0.01 0.00 0.01 0.01 0.00 0.00 0.00 0.01 0.01 0.02 0.02 0.02 0.03 0.04 0.03 0.02 0.01 0.00 0.00 0.01 0.02 0.02 0.02 0.02 0.01 0.01 0.01
0.02 0.02 0.01 0.01 0.00 0.00 0.01 0.01 0.01 0.01 0.01 0.01 0.01 0.01 0.01 0.01 0.01 0.01 0.01 0.01 0.00 0.00 0.01 0.02 0.02 0.02 0.01 0.02 0.03 0.04 0.04 0.02 0.01 0.00 0.00 0.01 0.01 0.02 0.02 0.02 0.01 0.01 0.01
0.02 0.02 0.02 0.01 0.00 0.00 0.00 0.01 0.01 0.01 0.01 0.01 0.01 0.02 0.01 0.00 0.00 0.00 0.01 0.01 0.01 0.01 0.01 0.02 0.02 0.02 0.02 0.02 0.04 0.05 0.03 0.02 0.01 0.01 0.01 0.01 0.01 0.01 0.01 0.02 0.01 0.01 0.01
0.01 0.01 0.03 0.01 0.00 0.00 0.00 0.01 0.01 0.01 0.00 0.00 0.00 0.01 0.00 0.00 0.00 0.00 0.01 0.02 0.02 0.02 0.02 0.01 0.02 0.01 0.01 0.01 0.03 0.03 0.02 0.01 0.02 0.01 0.01 0.01 0.01 0.01 0.01 0.01 0.02 0.01 0.01
0.01 0.01 0.01 0.02 0.01 0.01 0.00 0.00 0.00 0.00 0.00 0.00 0.00 0.00 0.00 0.00 0.00 0.00 0.01 0.02 0.01 0.02 0.01 0.01 0.01 0.01 0.01 0.01 0.01 0.02 0.01 0.01 0.01 0.01 0.01 0.02 0.02 0.02 0.01 0.01 0.01 0.02 0.02
0.02 0.02 0.01 0.02 0.01 0.01 0.01 0.00 0.00 0.00 0.00 0.00 0.00 0.00 0.00 0.00 0.01 0.00 0.00 0.00 0.00 0.01 0.01 0.01 0.01 0.01 0.01 0.01 0.01 0.02 0.02 0.02 0.02 0.02 0.02 0.03 0.03 0.03 0.03 0.02 0.02 0.03 0.03
0.03 0.03 0.03 0.03 0.02 0.02 0.02 0.01 0.00 0.00 0.00 0.00 0.00 0.01 0.00 0.00 0.01 0.00 0.00 0.00 0.00 0.01 0.01 0.01 0.02 0.02 0.02 0.02 0.01 0.01 0.01 0.01 0.02 0.01 0.01 0.03 0.04 0.04 0.05 0.04 0.05 0.06 0.05
0.06 0.03 0.03 0.04 0.04 0.05 0.04 0.03 0.01 0.01 0.00 0.00 0.00 0.00 0.00 0.01 0.01 0.00 0.00 0.00 0.01 0.01 0.01 0.01 0.02 0.02 0.02 0.02 0.01 0.02 0.02 0.01 0.01 0.01 0.02 0.02 0.04 0.04 0.05 0.05 0.05 0.05 0.06
0.05 0.05 0.05 0.06 0.05 0.05 0.05 0.05 0.03 0.02 0.01 0.00 0.01 0.01 0.01 0.01 0.01 0.00 0.01 0.01 0.01 0.01 0.01 0.01 0.02 0.02 0.01 0.02 0.02 0.02 0.03 0.01 0.02 0.02 0.02 0.01 0.01 0.03 0.04 0.05 0.05 0.05 0.06
0.08 0.06 0.07 0.07 0.07 0.06 0.05 0.05 0.04 0.03 0.02 0.01 0.01 0.01 0.02 0.01 0.01 0.01 0.01 0.01 0.01 0.01 0.01 0.01 0.01 0.02 0.02 0.02 0.03 0.03 0.02 0.03 0.03 0.02 0.01 0.01 0.01 0.01 0.03 0.05 0.05 0.05 0.05
0.10 0.08 0.08 0.08 0.09 0.10 0.11 0.10 0.07 0.06 0.05 0.03 0.02 0.02 0.03 0.02 0.02 0.01 0.01 0.02 0.02 0.01 0.01 0.01 0.01 0.01 0.02 0.02 0.03 0.05 0.04 0.05 0.04 0.03 0.01 0.01 0.01 0.01 0.02 0.05 0.07 0.07 0.08
0.09 0.09 0.07 0.08 0.09 0.11 0.13 0.15 0.13 0.11 0.10 0.07 0.06 0.05 0.04 0.04 0.03 0.02 0.01 0.02 0.01 0.02 0.02 0.02 0.01 0.01 0.02 0.02 0.03 0.03 0.03 0.04 0.04 0.03 0.02 0.02 0.01 0.01 0.02 0.03 0.05 0.06 0.07
0.09 0.08 0.07 0.07 0.09 0.09 0.11 0.13 0.14 0.12 0.09 0.09 0.10 0.09 0.07 0.05 0.03 0.02 0.02 0.01 0.01 0.02 0.03 0.03 0.02 0.02 0.02 0.01 0.02 0.02 0.02 0.02 0.02 0.03 0.03 0.02 0.02 0.03 0.03 0.02 0.02 0.03 0.04
0.08 0.10 0.10 0.10 0.11 0.10 0.11 0.14 0.18 0.18 0.16 0.14 0.13 0.10 0.08 0.05 0.03 0.02 0.02 0.02 0.01 0.02 0.03 0.03 0.02 0.02 0.01 0.01 0.01 0.02 0.02 0.01 0.02 0.02 0.02 0.01 0.02 0.03 0.03 0.04 0.03 0.01 0.01
0.12 0.11 0.12 0.13 0.15 0.15 0.16 0.20 0.25 0.26 0.21 0.17 0.13 0.10 0.07 0.05 0.04 0.03 0.03 0.03 0.03 0.02 0.02 0.01 0.01 0.01 0.00 0.00 0.01 0.01 0.01 0.01 0.01 0.01 0.01 0.01 0.01 0.01 0.02 0.03 0.03 0.01 0.01
0.12 0.13 0.12 0.15 0.17 0.19 0.18 0.16 0.15 0.15 0.11 0.09 0.11 0.10 0.08 0.05 0.03 0.03 0.03 0.02 0.03 0.03 0.02 0.02 0.01 0.00 0.00 0.00 0.00 0.00 0.00 0.00 0.00 0.01 0.01 0.00 0.01 0.01 0.02 0.02 0.02 0.01 0.01
0.10 0.13 0.12 0.14 0.17 0.21 0.19 0.15 0.12 0.11 0.08 0.08 0.10 0.10 0.07 0.05 0.04 0.04 0.03 0.02 0.02 0.03 0.03 0.02 0.01 0.01 0.00 0.00 0.00 0.01 0.01 0.00 0.00 0.00 0.00 0.00 0.00 0.01 0.01 0.02 0.01 0.01 0.00
0.10 0.10 0.10 0.13 0.16 0.20 0.17 0.15 0.10 0.08 0.06 0.05 0.05 0.06 0.06 0.06 0.06 0.04 0.03 0.02 0.01 0.02 0.03 0.01 0.01 0.01 0.00 0.00 0.00 0.00 0.01 0.00 0.00 0.00 0.00 0.00 0.00 0.00 0.01 0.01 0.00 0.00 0.00
MSLP
1010.52 1010.26 1010.18 1010.27 1010.50 1010.79 1011.07 1011.29 1011.42 1011.46 1011.45 1011.42 1011.44 1011.53 1011.69 1011.92 1012.19 1012.47 1012.71 1012.90 1013.03 1013.12 1013.19 1013.25 1013.34 1013.46 1013.61 1013.78 1013.96 1014.15 1014.32 1014.48 1014.63 1014.79 1014.95 1015.13 1015.32 1015.52 1015.71 1015.90 1016.07 1016.22 1016.37
1010.11 1009.93 1009.93 1010.11 1010.40 1010.75 1011.08 1011.33 1011.49 1011.56 1011.58 1011.60 1011.66 1011.81 1012.02 1012.30 1012.60 1012.88 1013.12 1013.28 1013.39 1013.45 1013.49 1013.53 1013.60 1013.71 1013.84 1014.00 1014.16 1014.32 1014.47 1014.62 1014.78 1014.95 1015.14 1015.35 1015.57 1015.80 1016.01 1016.21 1016.39 1016.55 1016.71
1009.70 1009.62 1009.71 1009.96 1010.33 1010.73 1011.10 1011.39 1011.58 1011.68 1011.74 1011.81 1011.93 1012.12 1012.37 1012.67 1012.97 1013.24 1013.44 1013.58 1013.65 1013.69 1013.71 1013.75 1013.81 1013.91 1014.04 1014.19 1014.34 1014.48 1014.62 1014.77 1014.93 1015.11 1015.32 1015.56 1015.80 1016.04 1016.27 1016.48 1016.66 1016.83 1017.00
1009.40 1009.41 1009.59 1009.92 1010.35 1010.80 1011.21 1011.52 1011.74 1011.87 1011.96 1012.07 1012.22 1012.43 1012.70 1013.00 1013.28 1013.52 1013.69 1013.79 1013.84 1013.86 1013.88 1013.92 1014.00 1014.11 1014.25 1014.40 1014.54 1014.68 1014.82 1014.96 1015.13 1015.32 1015.54 1015.78 1016.03 1016.28 1016.50 1016.70 1016.89 1017.07 1017.25
1009.29 1009.40 1009.67 1010.07 1010.54 1011.01 1011.43 1011.75 1011.96 1012.10 1012.21 1012.33 1012.50 1012.72 1012.99 1013.28 1013.54 1013.75 1013.89 1013.96 1014.00 1014.01 1014.04 1014.11 1014.21 1014.34 1014.49 1014.65 1014.80 1014.94 1015.08 1015.23 1015.40 1015.59 1015.82 1016.06 1016.30 1016.52 1016.73 1016.92 1017.09 1017.27 1017.46
1009.42 1009.62 1009.95 1010.39 1010.88 1011.35 1011.75 1012.04 1012.23 1012.35 1012.45 1012.57 1012.74 1012.97 1013.24 1013.51 1013.75 1013.94 1014.07 1014.13 1014.17 1014.20 1014.25 1014.34 1014.47 1014.63 1014.80 1014.97 1015.12 1015.27 1015.41 1015.56 1015.74 1015.94 1016.16 1016.38 1016.60 1016.80 1016.97 1017.13 1017.29 1017.46 1017.67
1009.75 1010.02 1010.41 1010.87 1011.35 1011.79 1012.14 1012.37 1012.51 1012.59 1012.66 1012.77 1012.93 1013.16 1013.43 1013.70 1013.95 1014.13 1014.26 1014.33 1014.39 1014.44 1014.53 1014.65 1014.81 1014.98 1015.17 1015.34 1015.50 1015.65 1015.80 1015.95 1016.14 1016.34 1016.55 1016.76 1016.95 1017.11 1017.25 1017.37 1017.50 1017.66 1017.87
1010.20 1010.53 1010.95 1011.42 1011.87 1012.26 1012.53 1012.70 1012.77 1012.79 1012.83 1012.92 1013.09 1013.32 1013.60 1013.89 1014.14 1014.35 1014.49 1014.59 1014.67 1014.75 1014.86 1015.01 1015.19 1015.38 1015.57 1015.74 1015.90 1016.05 1016.20 1016.36 1016.55 1016.75 1016.96 1017.16 1017.32 1017.45 1017.55 1017.64 1017.73 1017.87 1018.07
1010.65 1011.03 1011.47 1011.93 1012.36 1012.68 1012.89 1012.98 1012.98 1012.96 1012.97 1013.06 1013.23 1013.48 1013.78 1014.09 1014.37 1014.60 1014.76 1014.89 1014.99 1015.10 1015.23 1015.39 1015.58 1015.77 1015.95 1016.12 1016.27 1016.42 1016.57 1016.74 1016.94 1017.15 1017.36 1017.54 1017.70 1017.80 1017.87 1017.93 1018.00 1018.12 1018.30
1011.00 1011.42 1011.89 1012.35 1012.75 1013.03 1013.18 1013.21 1013.18 1013.13 1013.14 1013.22 1013.41 1013.69 1014.01 1014.34 1014.64 1014.89 1015.07 1015.21 1015.33 1015.45 1015.59 1015.76 1015.93 1016.12 1016.29 1016.45 1016.59 1016.74 1016.89 1017.07 1017.27 1017.49 1017.71 1017.90 1018.04 1018.14 1018.20 1018.24 1018.29 1018.39 1018.55
1011.18 1011.65 1012.15 1012.62 1013.01 1013.27 1013.40 1013.42 1013.38 1013.33 1013.35 1013.46 1013.67 1013.97 1014.31 1014.65 1014.96 1015.21 1015.40 1015.54 1015.66 1015.77 1015.91 1016.06 1016.23 1016.41 1016.57 1016.72 1016.86 1017.01 1017.16 1017.35 1017.55 1017.78 1018.00 1018.20 1018.36 1018.46 1018.52 1018.56 1018.60 1018.68 1018.83
1011.18 1011.70 1012.24 1012.75 1013.15 1013.43 1013.57 1013.61 1013.59 1013.58 1013.63 1013.78 1014.01 1014.33 1014.67 1015.01 1015.31 1015.54 1015.71 1015.84 1015.94 1016.04 1016.16 1016.31 1016.47 1016.64 1016.81 1016.96 1017.10 1017.25 1017.41 1017.59 1017.80 1018.03 1018.26 1018.46 1018.63 1018.75 1018.82 1018.87 1018.93 1019.01 1019.14
1011.04 1011.61 1012.20 1012.75 1013.19 1013.51 1013.70 1013.79 1013.84 1013.89 1013.99 1014.17 1014.43 1014.74 1015.08 1015.39 1015.66 1015.86 1015.99 1016.09 1016.17 1016.26 1016.37 1016.51 1016.68 1016.85 1017.03 1017.19 1017.35 1017.51 1017.67 1017.85 1018.05 1018.27 1018.49 1018.70 1018.87 1019.01 1019.11 1019.18 1019.25 1019.35 1019.47
1010.82 1011.44 1012.07 1012.65 1013.15 1013.52 1013.79 1013.96 1014.08 1014.21 1014.37 1014.58 1014.85 1015.16 1015.47 1015.74 1015.97 1016.13 1016.23 1016.30 1016.36 1016.44 1016.55 1016.70 1016.88 1017.08 1017.28 1017.47 1017.64 1017.81 1017.98 1018.15 1018.34 1018.53 1018.73 1018.92 1019.09 1019.24 1019.36 1019.47 1019.57 1019.68 1019.81
1010.59 1011.23 1011.88 1012.49 1013.03 1013.48 1013.82 1014.08 1014.30 1014.50 1014.71 1014.96 1015.23 1015.52 1015.79 1016.02 1016.20 1016.33 1016.40 1016.46 1016.52 1016.61 1016.73 1016.91 1017.11 1017.34 1017.58 1017.80 1018.00 1018.18 1018.35 1018.51 1018.66 1018.82 1018.98 1019.15 1019.30 1019.45 1019.59 1019.72 1019.85 1019.99 1020.14
1010.40 1011.02 1011.66 1012.28 1012.85 1013.35 1013.77 1014.12 1014.42 1014.69 1014.96 1015.23 1015.50 1015.76 1015.99 1016.19 1016.34 1016.45 1016.52 1016.59 1016.67 1016.79 1016.95 1017.15 1017.39 1017.66 1017.93 1018.18 1018.41 1018.61 1018.77 1018.91 1019.03 1019.14 1019.25 1019.37 1019.49 1019.63 1019.77 1019.92 1020.08 1020.24 1020.41
1010.25 1010.82 1011.41 1012.01 1012.59 1013.13 1013.62 1014.05 1014.43 1014.77 1015.08 1015.36 1015.62 1015.86 1016.06 1016.24 1016.38 1016.50 1016.60 1016.71 1016.83 1016.99 1017.19 1017.43 1017.71 1018.00 1018.30 1018.58 1018.83 1019.04 1019.20 1019.32 1019.40 1019.47 1019.52 1019.59 1019.67 1019.77 1019.90 1020.06 1020.23 1020.42 1020.60
1010.13 1010.60 1011.12 1011.68 1012.25 1012.82 1013.37 1013.87 1014.33 1014.73 1015.07 1015.36 1015.61 1015.83 1016.02 1016.19 1016.35 1016.50 1016.65 1016.82 1017.00 1017.21 1017.46 1017.73 1018.03 1018.34 1018.65 1018.94 1019.21 1019.42 1019.58 1019.69 1019.74 1019.76 1019.77 1019.78 1019.81 1019.88 1019.99 1020.14 1020.32 1020.51 1020.70
1009.97 1010.33 1010.76 1011.27 1011.83 1012.43 1013.03 1013.61 1014.13 1014.59 1014.97 1015.27 1015.52 1015.72 1015.91 1016.09 1016.28 1016.48 1016.70 1016.93 1017.18 1017.44 1017.72 1018.01 1018.31 1018.62 1018.93 1019.22 1019.48 1019.70 1019.87 1019.97 1020.02 1020.01 1019.98 1019.95 1019.93 1019.96 1020.04 1020.16 1020.33 1020.52 1020.72
1009.71 1009.97 1010.32 1010.78 1011.34 1011.97 1012.64 1013.29 1013.89 1014.41 1014.83 1015.15 1015.39 1015.60 1015.78 1015.98 1016.20 1016.46 1016.74 1017.05 1017.36 1017.66 1017.96 1018.24 1018.53 1018.81 1019.09 1019.37 1019.63 1019.86 1020.03 1020.15 1020.20 1020.20 1020.15 1020.09 1020.04 1020.03 1020.07 1020.16 1020.31 1020.49 1020.68
1009.33 1009.49 1009.78 1010.21 1010.79 1011.48 1012.22 1012.97 1013.65 1014.24 1014.70 1015.05 1015.30 1015.50 1015.69 1015.91 1016.17 1016.47 1016.81 1017.17 1017.52 1017.85 1018.15 1018.41 1018.66 1018.90 1019.15 1019.40 1019.65 1019.89 1020.09 1020.23 1020.31 1020.33 1020.29 1020.22 1020.15 1020.10 1020.10 1020.16 1020.27 1020.43 1020.60
1008.79 1008.90 1009.15 1009.59 1010.20 1010.96 1011.80 1012.65 1013.43 1014.10 1014.62 1014.99 1015.26 1015.46 1015.66 1015.89 1016.17 1016.50 1016.89 1017.28 1017.66 1018.00 1018.28 1018.52 1018.72 1018.91 1019.12 1019.34 1019.58 1019.83 1020.05 1020.24 1020.37 1020.42 1020.40 1020.34 1020.26 1020.19 1020.15 1020.17 1020.25 1020.38 1020.53
1008.12 1008.21 1008.46 1008.92 1009.60 1010.44 1011.38 1012.34 1013.22 1013.98 1014.56 1014.97 1015.26 1015.48 1015.67 1015.91 1016.20 1016.56 1016.96 1017.38 1017.77 1018.11 1018.37 1018.58 1018.73 1018.88 1019.04 1019.23 1019.46 1019.72 1019.98 1020.21 1020.38 1020.48 1020.50 1020.46 1020.38 1020.29 1020.23 1020.21 1020.25 1020.34 1020.47
1007.39 1007.47 1007.74 1008.24 1008.98 1009.90 1010.94 1012.00 1012.99 1013.83 1014.48 1014.95 1015.26 1015.49 1015.70 1015.93 1016.23 1016.60 1017.02 1017.45 1017.84 1018.18 1018.43 1018.60 1018.73 1018.83 1018.96 1019.13 1019.35 1019.62 1019.90 1020.17 1020.39 1020.53 1020.58 1020.56 1020.49 1020.39 1020.30 1020.25 1020.26 1020.31 1020.41
1006.65 1006.75 1007.04 1007.58 1008.36 1009.35 1010.46 1011.61 1012.68 1013.60 1014.32 1014.84 1015.20 1015.46 1015.68 1015.92 1016.23 1016.61 1017.04 1017.47 1017.88 1018.21 1018.46 1018.62 1018.73 1018.81 1018.91 1019.06 1019.27 1019.54 1019.84 1020.13 1020.38 1020.55 1020.64 1020.64 1020.57 1020.47 1020.36 1020.28 1020.24 1020.26 1020.33
1005.99 1006.11 1006.41 1006.96 1007.76 1008.78 1009.94 1011.13 1012.26 1013.25 1014.04 1014.62 1015.03 1015.33 1015.58 1015.85 1016.17 1016.56 1017.01 1017.46 1017.88 1018.23 1018.48 1018.65 1018.75 1018.83 1018.91 1019.05 1019.24 1019.50 1019.80 1020.10 1020.36 1020.55 1020.65 1020.66 1020.60 1020.49 1020.37 1020.26 1020.20 1020.18 1020.21
Thickness
5780 5781 5779 5777 5776 5775 5774 5773 5772 5772 5771 5771 5770 5770 5769 5768 5767 5766 5765 5764 5763 5762 5761 5760 5759 5757 5756 5755 5754 5753 5752 5751 5750 5748 5747 5746 5745 5743 5742 5741 5739 5737 5736
5786 5783 5780 5777 5775 5774 5772 5771 5770 5770 5769 5769 5768 5767 5767 5766 5765 5764 5763 5762 5761 5760 5759 5758 5757 5755 5754 5753 5752 5751 5750 5748 5747 5746 5745 5744 5742 5741 5740 5738 5737 5735 5734
5787 5783 5780 5777 5774 5772 5771 5769 5768 5768 5767 5767 5766 5765 5765 5764 5763 5762 5762 5760 5759 5758 5757 5756 5755 5753 5752 5751 5749 5748 5747 5746 5745 5744 5743 5741 5740 5739 5738 5736 5735 5733 5732
5787 5783 5779 5776 5773 5771 5769 5768 5767 5766 5765 5765 5764 5763 5763 5762 5761 5760 5759 5758 5757 5756 5755 5754 5753 5751 5750 5749 5747 5746 5745 5744 5743 5741 5740 5739 5738 5736 5735 5734 5733 5731 5730
5785 5782 5778 5775 5772 5770 5768 5767 5765 5764 5763 5763 5762 5761 5761 5760 5759 5758 5757 5756 5755 5754 5753 5752 5751 5749 5748 5746 5745 5744 5743 5741 5740 5738 5737 5736 5735 5734 5733 5732 5731 5729 5728
5782 5780 5777 5774 5771 5769 5767 5765 5764 5763 5762 5761 5760 5759 5758 5758 5757 5756 5755 5754 5753 5752 5751 5749 5748 5747 5746 5744 5743 5742 5741 5739 5737 5736 5735 5734 5733 5732 5731 5730 5728 5727 5726
5779 5777 5775 5772 5770 5767 5766 5764 5763 5761 5760 5759 5758 5757 5756 5755 5754 5753 5753 5752 5751 5749 5748 5747 5746 5745 5744 5743 5742 5740 5739 5737 5736 5734 5733 5732 5731 5730 5728 5727 5726 5724 5723
5778 5775 5772 5770 5767 5766 5764 5762 5761 5759 5758 5757 5756 5755 5754 5753 5752 5751 5750 5749 5748 5747 5746 5744 5743 5743 5742 5741 5740 5739 5737 5735 5733 5732 5730 5729 5728 5727 5726 5724 5723 5722 5720
5775 5772 5770 5768 5766 5763 5762 5760 5759 5757 5756 5755 5754 5753 5752 5751 5750 5749 5748 5747 5746 5745 5743 5742 5741 5740 5740 5739 5738 5737 5735 5733 5731 5729 5728 5727 5726 5725 5724 5722 5720 5719 5718
5771 5769 5767 5765 5763 5761 5760 5758 5757 5756 5754 5753 5752 5751 5750 5749 5748 5747 5745 5745 5744 5743 5742 5740 5739 5738 5737 5737 5736 5735 5733 5731 5729 5728 5726 5725 5724 5723 5721 5720 5718 5717 5716
5767 5766 5764 5762 5761 5759 5758 5756 5755 5754 5753 5751 5750 5749 5748 5747 5746 5744 5743 5743 5742 5741 5740 5739 5737 5736 5736 5735 5734 5733 5731 5729 5727 5726 5724 5723 5722 5721 5719 5718 5716 5715 5713
5764 5763 5763 5760 5759 5757 5756 5754 5753 5752 5750 5749 5748 5747 5746 5745 5744 5742 5742 5741 5740 5739 5738 5737 5736 5735 5734 5733 5732 5731 5729 5727 5726 5724 5723 5721 5720 5719 5717 5716 5715 5713 5711
5765 5763 5761 5759 5757 5755 5754 5752 5750 5749 5748 5747 5746 5745 5744 5742 5741 5740 5739 5739 5738 5737 5736 5735 5734 5733 5732 5731 5730 5729 5727 5726 5724 5723 5722 5720 5719 5718 5716 5714 5713 5711 5710
5764 5762 5759 5758 5755 5753 5752 5750 5748 5746 5745 5744 5744 5743 5742 5740 5739 5738 5737 5736 5736 5735 5734 5734 5733 5732 5730 5729 5728 5727 5726 5724 5723 5722 5720 5719 5717 5716 5715 5713 5711 5710 5708
5763 5761 5758 5756 5753 5751 5749 5748 5746 5744 5743 5742 5741 5740 5740 5739 5737 5736 5735 5734 5734 5733 5733 5732 5731 5731 5729 5728 5727 5726 5724 5723 5722 5720 5719 5718 5716 5715 5714 5712 5710 5709 5707
5764 5761 5759 5756 5753 5750 5748 5746 5744 5743 5741 5740 5739 5738 5738 5737 5736 5735 5734 5733 5733 5732 5731 5731 5730 5729 5728 5727 5726 5725 5723 5722 5720 5719 5718 5717 5716 5714 5713 5711 5710 5708 5707
5764 5762 5759 5756 5752 5749 5747 5745 5743 5741 5739 5738 5737 5737 5736 5736 5735 5734 5733 5732 5731 5731 5731 5730 5729 5728 5727 5727 5725 5724 5722 5721 5719 5718 5717 5716 5715 5714 5712 5711 5709 5708 5706
5763 5761 5758 5757 5752 5747 5745 5743 5741 5739 5738 5737 5736 5735 5735 5734 5734 5733 5732 5731 5730 5730 5730 5729 5728 5726 5725 5725 5724 5723 5721 5720 5718 5717 5716 5715 5714 5713 5712 5710 5709 5708 5706
5763 5760 5757 5756 5752 5748 5744 5742 5740 5738 5736 5735 5734 5734 5734 5733 5733 5732 5731 5730 5729 5729 5729 5728 5726 5725 5723 5722 5722 5721 5720 5719 5717 5716 5715 5714 5713 5712 5711 5710 5709 5708 5706
5762 5760 5756 5754 5751 5748 5743 5739 5737 5735 5734 5734 5733 5733 5733 5732 5732 5731 5730 5729 5728 5728 5727 5726 5725 5724 5722 5721 5720 5718 5717 5717 5716 5715 5715 5714 5713 5712 5711 5710 5708 5707 5706
5762 5758 5755 5751 5750 5747 5742 5738 5734 5732 5733 5732 5732 5732 5732 5731 5731 5730 5729 5728 5727 5727 5726 5725 5723 5722 5720 5719 5716 5713 5714 5715 5715 5715 5714 5714 5713 5712 5711 5710 5708 5707 5705
5762 5759 5755 5752 5749 5747 5744 5740 5736 5734 5732 5732 5732 5731 5731 5730 5730 5730 5729 5728 5727 5726 5724 5724 5723 5720 5719 5718 5715 5710 5707 5708 5712 5714 5713 5713 5713 5712 5710 5709 5708 5706 5705
5762 5759 5757 5754 5750 5747 5744 5739 5734 5730 5729 5728 5728 5729 5729 5729 5729 5729 5728 5728 5727 5726 5724 5723 5723 5720 5717 5716 5716 5712 5706 5703 5706 5710 5712 5713 5712 5711 5710 5709 5708 5707 5705
5763 5760 5757 5754 5749 5746 5743 5739 5735 5731 5728 5728 5729 5728 5728 5728 5728 5728 5728 5727 5726 5725 5724 5724 5723 5722 5719 5715 5714 5714 5713 5711 5706 5705 5708 5711 5711 5711 5710 5709 5708 5707 5705
5763 5759 5755 5752 5748 5745 5743 5740 5736 5733 5731 5729 5728 5727 5727 5727 5727 5727 5727 5726 5725 5725 5724 5723 5722 5721 5720 5718 5716 5714 5712 5710 5709 5706 5704 5706 5708 5710 5710 5709 5708 5706 5705
5760 5756 5753 5750 5746 5744 5742 5740 5737 5734 5731 5728 5727 5725 5724 5724 5725 5725 5725 5725 5725 5724 5724 5723 5722 5721 5720 5719 5718 5716 5714 5711 5709 5707 5705 5704 5704 5707 5708 5708 5708 5707 5706